Regional Weather Roundup
Issued by NWS

Home | Current Version | Previous Version | Graphics & Text | Print | Product List | Glossary On
Versions: 1 2 3 4 5 6 7 8 9 10 11 12 13 14 15 16 17 18 19 20 21 22 23 24 25 26 27 28
000
ASUS45 KBOU 150710
RWRCO

WEATHER ROUNDUP FOR COLORADO
NATIONAL WEATHER SERVICE DENVER/BOULDER CO
1200 AM MST FRI DEC 15 2017

NOTE: "FAIR" INDICATES FEW OR NO CLOUDS BELOW 12000 FEET WITH NO
SIGNIFICANT WEATHER AND/OR OBSTRUCTIONS TO VISIBILITY.

COZ001>005-013-030-031-150800-
...NORTHWEST COLORADO...

CITY           SKY/WX    TMP DP  RH WIND       PRES   REMARKS
CRAIG          FAIR       3  -2  79 CALM      30.36F
HAYDEN         FAIR      16   9  74 E13       30.35F WCI   2
MEEKER         FAIR      13   8  81 E3        30.36F
RABBIT EARS PA FAIR      12  10  92 W7        30.26S WCI   2
STEAMBOAT SPGS MOCLDY    12   8  84 CALM      30.34S
WALDEN         FAIR       1  -4  78 SE6       30.30F WCI -10
$$

COZ006>008-011-150800-
...WEST CENTRAL VALLEYS...

CITY           SKY/WX    TMP DP  RH WIND       PRES   REMARKS
GRAND JUNCTION FAIR      22  11  62 E5        30.37S WCI  16
MONTROSE       FAIR      21  15  78 S9        30.40S WCI  11
EAGLE          FAIR      11   6  81 SE5       30.42F WCI   3
RIFLE          FAIR      18   8  65 CALM      30.41R
DELTA          FAIR      26  12  55 CALM      30.40S
NUCLA          FAIR      25  10  54 SE8       30.40S WCI  16
$$

COZ017>023-064>068-150800-
...SOUTHWEST COLORADO...

CITY           SKY/WX    TMP DP  RH WIND       PRES   REMARKS
DURANGO        FAIR      16  15  96 CALM      30.28R
CORTEZ         FAIR      18   5  57 NE7       30.30R WCI   9
PAGOSA SPRINGS FAIR      19  17  93 CALM      30.29S
TELLURIDE      FAIR      20   6  54 SE3       30.35S
WOLF CREEK PAS FAIR      14 -11  31 NW9       30.32S WCI   2
$$

COZ009-010-012-014-032>034-037-058>063-150800-
...CENTRAL COLORADO...

CITY           SKY/WX    TMP DP  RH WIND       PRES   REMARKS
ASPEN          FAIR      15   4  61 SW9       30.34F WCI   3
BUENA VISTA    FAIR      20   3  48 W12       30.28R WCI   8
COPPER MTN     NOT AVBL
BERTHOUD PASS  FAIR       1  -9  60 NW22      30.22S WCI -21
COTTONWOOD PAS FAIR      28  -6  22 NW15G24   30.25S WCI  17
GUNNISON       FAIR      12   4  70 CALM      30.36S
KREMMLING      FAIR       9   3  78 CALM      30.38F
LEADVILLE      FAIR       2  -4  76 NE9       30.29F WCI -13
MONARCH PASS   FAIR      10  -8  44 W20       30.37R WCI  -8
SALIDA         FAIR      17   7  65 W5        30.37S WCI  10
SUNLIGHT       FAIR      14  -4  44 N3        30.35F
WILKERSON PASS FAIR      16  -9  32 N13G21    30.23R WCI   2
$$

COZ069>075-150800-
...SAN LUIS VALLEY/SANGRE DE CRISTO MOUNTAINS...

CITY           SKY/WX    TMP DP  RH WIND       PRES   REMARKS
ALAMOSA        FAIR       7   5  91 NW5       30.29S WCI  -2
DEL NORTE      FAIR      20   7  57 W14       30.29S WCI   7
LA VETA PASS   FAIR      16  12  86 SW20G29     N/A  WCI  -1
SAGUACHE       FAIR      25   9  50 N14       30.30R WCI  13
$$

COZ035-036-038>040-150800-
...NORTHERN COLORADO FRONT RANGE...

CITY           SKY/WX    TMP DP  RH WIND       PRES   REMARKS
DENVER INTL AP FAIR      22  14  71 S14       30.16F WCI   9
DMNS CITY PARK NOT AVBL
AURORA         CLEAR     23  16  74 S14       30.16F WCI  11
FRONT RANGE AP FAIR      19  14  82 S10       30.16F WCI   7
ERIE MUNI ARPT FAIR      25  19  78 S3        30.22F
BOULDER MUN AP FAIR      25  19  80 CALM      30.15F
CENTENNIAL     FAIR      21  15  78 S8        30.17F WCI  11
BROOMFIELD     FAIR      23  19  86 SW5       30.15F WCI  17
FORT COLLINS   FAIR      22  19  89 S9        30.16F WCI  12
LONGMONT       FAIR      22  17  81 W5        30.18F WCI  15
$$

COZ041-046-047-076>085-087-088-150800-
...PIKES PEAK/PALMER DIVIDE AND SOUTHERN FOOTHILLS...

CITY           SKY/WX    TMP DP  RH WIND       PRES   REMARKS
COLO. SPRINGS  CLOUDY    26  24  92 S5        30.23F WCI  20
A. F. ACADEMY  CLOUDY    13   9  84 N8        30.21F WCI   1
SCHRIEVER AFB  MOCLDY    24  24  97 W6        30.22F WCI  17
CHEYENNE MTN   FAIR      23  17  77 CALM      30.14F
ELLICOTT       CLOUDY   N/A N/A N/A NW5       30.21F
FALCON         CLOUDY    24  23  97 W9        30.21F WCI  14
FORT CARSON    FAIR      20  17  88 NW7       30.21F WCI  11
LIMON          FAIR      11   9  92 N5        30.20F WCI   3
MONUMENT HILL  FAIR      18  12  79 SW12      30.19F WCI   5
CANON CITY     FAIR      30  19  64 NW15      30.23F WCI  19
WALSENBURG     FAIR      25  21  86 CALM      30.24F
TRINIDAD       FAIR      22  20  92 SW8       30.26F WCI  12
$$

COZ042>045-048>051-090-091-150800-
...NORTHEAST COLORADO...

CITY           SKY/WX    TMP DP  RH WIND       PRES   REMARKS
GREELEY ARPT   FAIR      13   8  81 NE3       30.18F
AKRON          FAIR      20  14  77 SW9       30.16F WCI   9
BURLINGTON     FAIR      16  13  88 W10       30.21F WCI   4
WRAY           FAIR      18  14  86 W8        30.19F WCI   7
YUMA           FAIR      14  12  92 W7        30.18F WCI   4
STERLING       FAIR      14  10  85 S7        30.17F WCI   4
HOLYOKE        FAIR      19  14  79 W7        30.18F WCI  10
FORT MORGAN    FAIR      15  11  83 W8        30.18F WCI   5
$$

COZ086-089-092>099-150800-
...SOUTHEAST COLORADO...

CITY           SKY/WX    TMP DP  RH WIND       PRES   REMARKS
PUEBLO         FAIR      22  19  89 W5        30.25F WCI  16
LA JUNTA       FAIR      22  20  92 NW10      30.27F WCI  11
LAMAR          FAIR      19  16  88 SW5       30.26F WCI  12
SPRINGFIELD      N/A     20  17  88 W9        30.25F WCI   9
$$




USA.gov is the U.S. government's official web portal to all federal, state and local government web resources and services.